Weather History for Granada, Spain

Change the Weather History Date:

Friday, August 23, 2013

  Actual Average Record
Temperature  
Mean Temperature 82 °F -  
Max Temperature 101 °F 84 °F 104 °F (1999)
Min Temperature 62 °F 55 °F 48 °F (2005)
Cooling Degree Days 16    
Growing Degree Days 32 (Base 50)    
Moisture  
Dew Point 50 °F    
Average Humidity 33    
Maximum Humidity 68    
Minimum Humidity 11    
Precipitation  
Precipitation 0.00 in - - ()
Sea Level Pressure  
Sea Level Pressure 29.96 in    
Wind  
Wind Speed 3 mph ()    
Max Wind Speed 13 mph    
Max Gust Speed 18 mph    
Visibility 6.8 miles    
Events      
Averages and records for this station are not official NWS values.
T = Trace of Precipitation, MM = Missing Value Source: Averaged Metar Reports

Daily Weather History Graph

Daily Weather History Graph

Search for Another Location

Airport:

Trip Planner

Search our weather history database for the weather conditions in past years. The results will help you decide how hot, cold, wet, or windy it might be!

Date:

Astronomy

Aug. 23, 2013 Rise Set
Actual Time 7:38 AM CEST 8:56 PM CEST
Civil Twilight 7:11 AM CEST 9:23 PM CEST
Nautical Twilight 6:38 AM CEST 9:55 PM CEST
Astronomical Twilight 6:04 AM CEST 10:29 PM CEST
Moon 10:12 PM CEST (8/23) 10:12 AM CEST (8/23)
Length of Visible Light 14h 12m
Length of Day
13h 18m
Waning Gibbous, 93% of the Moon is Illuminated
Aug 23
Waning Gibbous
Aug 28
Last Quarter
Sep 5
New
Sep 12
First Quarter
Sep 19
Full

Hourly Weather History & Observations

Time (CEST) Temp. Heat Index Dew Point Humidity Pressure Visibility Wind Dir Wind Speed Gust Speed Precip Events Conditions
2:00 AM 71 °F - 50 °F 37% 29.95 in 14 mi Calm Calm - -  
6:00 AM 64.4 °F - 50.0 °F 59% 30.01 in - Variable 1.2 mph - N/A   Clear
6:30 AM 64.4 °F - 50.0 °F 59% 29.98 in - Calm Calm - N/A   Clear
7:00 AM 64.4 °F - 51.8 °F 64% 29.98 in - Calm Calm - N/A   Clear
7:30 AM 62.6 °F - 50.0 °F 63% 29.98 in - Variable 1.2 mph - N/A   Clear
8:00 AM 62 °F - 49 °F 53% 29.96 in 7 mi Calm Calm - -   Scattered Clouds
8:00 AM 62.6 °F - 51.8 °F 68% 29.98 in - Calm Calm - N/A   Clear
8:30 AM 66.2 °F - 51.8 °F 60% 30.01 in - Calm Calm - N/A   Clear
9:00 AM 68.0 °F - 53.6 °F 60% 30.01 in - Calm Calm - N/A   Clear
9:30 AM 71.6 °F - 57.2 °F 60% 30.01 in - Calm Calm - N/A   Clear
10:00 AM 73.4 °F - 55.4 °F 53% 30.01 in - Variable 1.2 mph - N/A   Clear
10:30 AM 77.0 °F - 55.4 °F 47% 30.01 in - Calm Calm - N/A   Clear
11:00 AM 82.4 °F - 51.8 °F 35% 30.01 in - Calm Calm - N/A   Clear
11:30 AM 84.2 °F - 51.8 °F 33% 30.01 in - Calm Calm - N/A   Clear
12:00 PM 87.8 °F 85.7 °F 53.6 °F 31% 30.01 in - Calm Calm - N/A   Clear
12:30 PM 89.6 °F 87.3 °F 53.6 °F 29% 30.01 in - Calm Calm - N/A   Clear
1:00 PM 91.4 °F - 51.8 °F 26% 29.98 in 6.2 mi Variable 1.2 mph - N/A   Partly Cloudy
1:30 PM 93.2 °F 90.8 °F 53.6 °F 26% 29.98 in 6.2 mi Variable 1.2 mph - N/A   Partly Cloudy
2:00 PM 97 °F - 48 °F 11% 29.81 in 11 mi WNW 6.9 mph - -   Scattered Clouds
2:00 PM 96.8 °F - 46.4 °F 18% 29.98 in 6.2 mi West 5.8 mph - N/A   Partly Cloudy
2:30 PM 98.6 °F - 50.0 °F 19% 29.95 in 6.2 mi WNW 9.2 mph - N/A   Partly Cloudy
3:00 PM 98.6 °F - 48.2 °F 18% 29.95 in 6.2 mi WNW 9.2 mph - N/A   Partly Cloudy
3:30 PM 100.4 °F - 48.2 °F 17% 29.95 in 6.2 mi WNW 10.4 mph - N/A   Partly Cloudy
4:00 PM 100.4 °F - 46.4 °F 16% 29.95 in 6.2 mi Variable 5.8 mph 18.4 mph N/A   Partly Cloudy
4:30 PM 100.4 °F - 48.2 °F 17% 29.92 in 6.2 mi WNW 9.2 mph - N/A   Partly Cloudy
5:00 PM 100.4 °F - 48.2 °F 17% 29.92 in 6.2 mi WNW 12.7 mph - N/A   Partly Cloudy
5:30 PM 100.4 °F - 48.2 °F 17% 29.92 in 6.2 mi WNW 9.2 mph - N/A   Partly Cloudy
6:00 PM 98.6 °F - 48.2 °F 18% 29.92 in 6.2 mi WNW 11.5 mph - N/A   Partly Cloudy
6:30 PM 98.6 °F - 46.4 °F 17% 29.92 in 6.2 mi West 9.2 mph - N/A   Partly Cloudy
7:00 PM 98.6 °F - 50.0 °F 19% 29.92 in 6.2 mi WNW 8.1 mph - N/A   Partly Cloudy
7:30 PM 96.8 °F - 50.0 °F 20% 29.92 in 6.2 mi West 10.4 mph - N/A   Partly Cloudy
8:00 PM 94 °F - 50 °F 13% 29.77 in 7 mi West 9.2 mph - -   Scattered Clouds
8:00 PM 95.0 °F - 50.0 °F 22% 29.92 in 6.2 mi West 9.2 mph - N/A   Partly Cloudy
8:30 PM 91.4 °F - 46.4 °F 21% 29.92 in 6.2 mi West 9.2 mph - N/A   Partly Cloudy
9:00 PM 89.6 °F - 46.4 °F 22% 29.95 in 6.2 mi West 6.9 mph - N/A   Partly Cloudy
9:30 PM 86.0 °F - 46.4 °F 25% 29.95 in 6.2 mi SW 5.8 mph - N/A   Partly Cloudy
10:00 PM 84.2 °F - 46.4 °F 27% 29.98 in 6.2 mi SW 5.8 mph - N/A   Partly Cloudy
10:30 PM 84.2 °F - 46.4 °F 27% 29.98 in - SSW 6.9 mph - N/A   Clear
11:00 PM 84.2 °F - 44.6 °F 25% 29.98 in - SSW 8.1 mph - N/A   Clear
11:30 PM 80.6 °F - 50.0 °F 34% 30.01 in - Variable 1.2 mph - N/A   Clear